Acapulco, Mexico

9:17 AM CDT on August 29, 2016 (GMT -0500)
Gen Juan N Alvarez International

Weather History for MMAA - November, 2012

Change the Weather History Date:

Tuesday, November 27, 2012

  Actual Average Record
Temperature  
Mean Temperature 82 °F -  
Max Temperature 90 °F 89 °F 97 °F (2015)
Min Temperature 73 °F 71 °F 69 °F (2001)
Cooling Degree Days 16    
Growing Degree Days 32 (Base 50)    
Moisture  
Dew Point 73 °F    
Average Humidity 75    
Maximum Humidity 90    
Minimum Humidity 50    
Precipitation  
Precipitation 0.00 in 0.02 in - ()
Sea Level Pressure  
Sea Level Pressure 29.95 in    
Wind  
Wind Speed 3 mph ()    
Max Wind Speed 12 mph    
Max Gust Speed -    
Visibility 8.0 miles    
Events      
Averages and records for this station are not official NWS values.
T = Trace of Precipitation, MM = Missing Value Source: Averaged Metar Reports

Daily Weather History Graph

Daily Weather History Graph

Search for Another Location

Airport or City:

Trip Planner

Search our weather history database for the weather conditions in past years. The results will help you decide how hot, cold, wet, or windy it might be!

Date:

Astronomy

Nov. 27, 2012 Rise Set
Actual Time 6:49 AM CST 6:03 PM CST
Civil Twilight 6:26 AM CST 6:26 PM CST
Nautical Twilight 6:00 AM CST 6:53 PM CST
Astronomical Twilight 5:33 AM CST 7:19 PM CST
Moon 5:34 PM CST (11/27) 5:59 AM CST (11/27)
Length of Visible Light 12h 00m
Length of Day
11h 13m
Waxing Gibbous, 99% of the Moon is Illuminated
Nov 27
Waxing Gibbous
Nov 28
Full
Dec 6
Last Quarter
Dec 13
New
Dec 19
First Quarter

Hourly Weather History & Observations

Time (CST) Temp. Heat Index Dew Point Humidity Pressure Visibility Wind Dir Wind Speed Gust Speed Precip Events Conditions
12:43 AM 78.8 °F - 73.4 °F 83% 29.96 in 7.0 mi Calm Calm - N/A   Mostly Cloudy
1:43 AM 77.0 °F - 73.4 °F 89% 29.95 in 7.0 mi Calm Calm - N/A   Mostly Cloudy
2:45 AM 75 °F - 71 °F 85% 29.92 in 6 mi SSE 2.2 mph - -   Clear
2:45 AM 77.0 °F - 73.4 °F 89% 29.94 in 7.0 mi Calm Calm - N/A   Scattered Clouds
3:42 AM 77.0 °F - 73.4 °F 89% 29.94 in 7.0 mi Calm Calm - N/A   Scattered Clouds
4:43 AM 77.0 °F - 71.6 °F 83% 29.93 in 7.0 mi Calm Calm - N/A   Scattered Clouds
5:45 AM 77.0 °F - 71.6 °F 83% 29.92 in 7.0 mi Calm Calm - N/A   Scattered Clouds
5:50 AM 74 °F - 72 °F 90% 29.94 in 6 mi South 2.2 mph - -   Scattered Clouds
6:42 AM 75.2 °F - 69.8 °F 83% 29.95 in 8.0 mi Calm Calm - N/A   Scattered Clouds
7:46 AM 77.0 °F - 71.6 °F 83% 29.87 in 7.0 mi Calm Calm - N/A   Scattered Clouds
8:48 AM 78.8 °F - 73.4 °F 83% 29.99 in 7.0 mi Calm Calm - N/A   Scattered Clouds
8:50 AM 78 °F - 72 °F 78% 30.00 in 12 mi NNE 2.2 mph - -   Clear
9:45 AM 80.6 °F 84.6 °F 71.6 °F 74% 30.00 in 7.0 mi Calm Calm - N/A   Scattered Clouds
10:43 AM 86.0 °F 91.8 °F 71.6 °F 62% 30.00 in 8.0 mi WSW 11.5 mph - N/A   Scattered Clouds
11:45 AM 87.8 °F 95.6 °F 73.4 °F 62% 29.97 in 8.0 mi WSW 11.5 mph - N/A   Scattered Clouds
11:50 AM 86 °F - 72 °F 55% 29.97 in 12 mi WSW 6.7 mph - -   Scattered Clouds
12:42 PM 87.8 °F 95.6 °F 73.4 °F 62% 29.96 in 8.0 mi WSW 6.9 mph - N/A   Scattered Clouds
1:43 PM 89.6 °F 96.2 °F 71.6 °F 55% 29.94 in 8.0 mi WSW 11.5 mph - N/A   Clear
2:45 PM 89.6 °F 96.2 °F 71.6 °F 55% 29.94 in 8.0 mi WSW 11.5 mph - N/A   Clear
2:50 PM 88 °F - 72 °F 50% 29.89 in 12 mi WSW 6.7 mph - -   Scattered Clouds
3:43 PM 89.6 °F 98.2 °F 73.4 °F 59% 29.90 in 8.0 mi WSW 11.5 mph - N/A   Clear
4:43 PM 87.8 °F 95.6 °F 73.4 °F 62% 29.90 in 8.0 mi WSW 11.5 mph - N/A   Clear
5:48 PM 86.0 °F 96.9 °F 77.0 °F 74% 29.91 in 8.0 mi WSW 5.8 mph - N/A   Clear
5:50 PM 84 °F - 73 °F 62% 29.90 in 12 mi West 4.5 mph - -  
6:45 PM 84.2 °F 92.3 °F 75.2 °F 74% 29.93 in 8.0 mi WSW 6.9 mph - N/A   Clear
7:43 PM 84.2 °F 92.3 °F 75.2 °F 74% 29.94 in 8.0 mi Calm Calm - N/A   Clear
8:43 PM 82.4 °F 90.9 °F 77.0 °F 84% 29.97 in 8.0 mi Calm Calm - N/A   Clear
8:50 PM 79 °F - 74 °F 82% 29.97 in 6 mi WNW 4.5 mph - -  
9:45 PM 80.6 °F 86.2 °F 75.2 °F 84% 29.98 in 8.0 mi Calm Calm - N/A   Clear
10:42 PM 80.6 °F 86.2 °F 75.2 °F 84% 29.98 in 8.0 mi Calm Calm - N/A   Clear
11:42 PM 80.6 °F 86.2 °F 75.2 °F 84% 29.97 in 8.0 mi Calm Calm - N/A   Clear
11:45 PM 77 °F - 74 °F 86% 30.01 in 6 mi West 2.2 mph - -